Chillicothe, MO

9:13 PM CST on December 08, 2019 (GMT -0600)
Chillicothe

Weather History for KCDJ - October, 2019

Change the Weather History Date:

Tuesday, October 1, 2019

  Actual Average (KIRK) Record (KIRK)
Temperature  
Mean Temperature 80 °F -  
Max Temperature 88 °F 73 °F 90 °F (2002)
Min Temperature 71 °F 50 °F 30 °F (1985)
Cooling Degree Days 14    
Growing Degree Days 30 (Base 50)    
Moisture  
Dew Point 70 °F    
Average Humidity 74    
Maximum Humidity 90    
Minimum Humidity 63    
Precipitation  
Precipitation 0.00 in - - ()
Sea Level Pressure  
Sea Level Pressure 29.87 in    
Wind  
Wind Speed 6 mph (South)    
Max Wind Speed 13 mph    
Max Gust Speed 23 mph    
Averages and records for this station are not official NWS values.
T = Trace of Precipitation, MM = Missing Value Source: NWS Daily Summary

Daily Weather History Graph

Daily Weather History Graph

Search for Another Location

Airport or City:

Astronomy

Oct. 01, 2019 Rise Set
Actual Time 7:10 AM CDT 6:57 PM CDT
Civil Twilight 6:43 AM CDT 7:23 PM CDT
Nautical Twilight 6:12 AM CDT 7:55 PM CDT
Astronomical Twilight 5:40 AM CDT 8:26 PM CDT
Moon 10:26 AM CDT (10/1) 9:10 PM CDT (10/1)
Length of Visible Light 12h 40m
Length of Day
11h 46m
Waxing Crescent, 12% of the Moon is Illuminated
Oct 1
Waxing Crescent
Oct 5
First Quarter
Oct 13
Full
Oct 21
Last Quarter
Oct 27
New

Hourly Weather History & Observations

Time (CDT) Temp. Heat Index Dew Point Humidity Pressure Visibility Wind Dir Wind Speed Gust Speed Precip Events Conditions
12:52 AM 73.9 °F - 68.0 °F 82% 29.89 in - South 3.5 mph - N/A   Unknown
2:52 AM 72.0 °F - 68.0 °F 87% 29.90 in - Calm Calm - N/A   Unknown
4:52 AM 71.1 °F - 68.0 °F 90% 29.91 in - ESE 3.5 mph - N/A   Unknown
5:52 AM 71.1 °F - 68.0 °F 90% 29.92 in - Calm Calm - N/A   Unknown
7:52 AM 71.1 °F - 68.0 °F 90% 29.93 in - Calm Calm - N/A   Unknown
8:52 AM 75.0 °F - 69.1 °F 82% 29.93 in - South 8.1 mph - N/A   Unknown
9:52 AM 78.1 °F - 69.1 °F 74% 29.92 in - South 11.5 mph 21.9 mph N/A   Unknown
10:52 AM 82.0 °F 85.9 °F 70.0 °F 67% 29.92 in - SW 6.9 mph 19.6 mph N/A   Unknown
11:52 AM 84.0 °F 89.6 °F 72.0 °F 67% 29.92 in - SSW 10.4 mph 23.0 mph N/A   Unknown
12:52 PM 86.0 °F 93.0 °F 73.0 °F 65% 29.90 in - SSW 12.7 mph 19.6 mph N/A   Unknown
2:52 PM 88.0 °F 96.5 °F 73.9 °F 63% 29.85 in - South 8.1 mph - N/A   Unknown
3:52 PM 87.1 °F 94.5 °F 73.0 °F 63% 29.82 in - South 12.7 mph - N/A   Unknown
4:52 PM 86.0 °F 92.2 °F 72.0 °F 63% 29.81 in - South 9.2 mph 19.6 mph N/A   Unknown
5:52 PM 84.9 °F 90.7 °F 72.0 °F 65% 29.81 in - South 8.1 mph - N/A   Unknown
6:52 PM 82.0 °F 86.3 °F 71.1 °F 69% 29.83 in - South 4.6 mph - N/A   Unknown
7:52 PM 80.1 °F 83.6 °F 71.1 °F 74% 29.82 in - South 6.9 mph - N/A   Unknown
8:52 PM 80.1 °F 83.2 °F 70.0 °F 71% 29.82 in - South 6.9 mph - N/A   Unknown
9:52 PM 80.1 °F 83.2 °F 70.0 °F 71% 29.82 in - South 10.4 mph - N/A   Unknown
10:52 PM 80.1 °F 82.9 °F 69.1 °F 69% 29.82 in - SSW 10.4 mph - N/A   Unknown
11:52 PM 79.0 °F - 68.0 °F 69% 29.82 in - SSW 9.2 mph 17.3 mph N/A   Unknown